N3FWE Weather Reports


time (UTC)temp
C
wind
direction
speed
KPH
gust
KPH
rain 1hr
cm
rain 24hr
cm
rain mn
cm
humidity
%
barometer
mb
20260906023004 18 99 0.0 0.0 0.00 0.00 0.00 84 1014.7
20260906022004 18 99 0.0 0.0 0.00 0.00 0.00 84 1014.6
20260906021004 18 99 0.0 0.0 0.00 0.00 0.00 83 1014.7
20260906020005 18 99 0.0 3.2 0.00 0.00 0.00 83 1014.6
20260906015004 19 99 0.0 0.0 0.00 0.00 0.00 83 1014.6
20260906014004 19 99 0.0 0.0 0.00 0.00 0.00 82 1014.4
20260906013008 19 99 0.0 0.0 0.00 0.00 0.00 81 1014.4
20260906012005 20 99 0.0 0.0 0.00 0.00 0.00 81 1014.3
20260906011004 20 99 0.0 0.0 0.00 0.00 0.00 81 1014.2
20260906010004 20 99 0.0 0.0 0.00 0.00 0.00 79 1014.2
20260906005004 20 99 0.0 0.0 0.00 0.00 0.00 78 1014.0
20260906004005 21 99 0.0 0.0 0.00 0.00 0.00 76 1013.9
20260906003004 21 99 0.0 0.0 0.00 0.00 0.00 76 1013.9
20260906002004 21 99 0.0 0.0 0.00 0.00 0.00 74 1013.8
20260906001004 22 98 0.0 0.0 0.00 0.00 0.00 72 1013.6
20260906000005 22 98 0.0 0.0 0.00 0.00 0.00 70 1013.5
20260905235004 23 98 0.0 0.0 0.00 0.00 0.00 69 1013.4
20260905234004 23 98 0.0 0.0 0.00 0.00 0.00 66 1013.3
20260905233004 24 98 0.0 0.0 0.00 0.00 0.00 63 1013.2
20260905232005 24 98 0.0 0.0 0.00 0.00 0.00 61 1013.3
20260905231004 25 98 0.0 0.0 0.00 0.00 0.00 60 1013.2
20260905230005 25 98 1.6 6.4 0.00 0.00 0.00 60 1013.1
20260905225004 25 355 1.6 3.2 0.00 0.00 0.00 59 1013.0
20260905224004 25 59 1.6 4.8 0.00 0.00 0.00 59 1012.8
20260905223006 25 80 1.6 3.2 0.00 0.00 0.00 59 1012.8
20260905222004 25 59 1.6 6.4 0.00 0.00 0.00 57 1012.9
20260905221003 25 53 3.2 6.4 0.00 0.00 0.00 58 1012.8
20260905220005 26 58 1.6 6.4 0.00 0.00 0.00 58 1012.8
20260905215003 26 330 1.6 6.4 0.00 0.00 0.00 57 1012.8
20260905214002 26 45 3.2 6.4 0.00 0.00 0.00 57 1012.7
20260905213003 26 26 3.2 4.8 0.00 0.00 0.00 58 1012.6
20260905212003 26 336 1.6 6.4 0.00 0.00 0.00 59 1012.5
20260905211003 26 24 0.0 3.2 0.00 0.00 0.00 57 1012.5
20260905210003 26 15 1.6 4.8 0.00 0.00 0.00 59 1012.5
20260905205003 26 78 3.2 11.3 0.00 0.00 0.00 59 1012.7
20260905204003 26 82 1.6 6.4 0.00 0.00 0.00 59 1012.7
20260905203004 26 52 3.2 6.4 0.00 0.00 0.00 59 1012.7
20260905202003 26 25 3.2 8.0 0.00 0.00 0.00 58 1012.8
20260905201003 26 80 3.2 14.5 0.00 0.00 0.00 60 1012.8
20260905200004 25 117 3.2 8.0 0.00 0.00 0.00 61 1013.0
20260905195004 26 48 3.2 8.0 0.00 0.00 0.00 59 1013.1
20260905194003 26 115 3.2 6.4 0.00 0.00 0.00 59 1013.1
20260905193004 26 310 3.2 12.9 0.00 0.00 0.00 59 1013.0
20260905192003 26 22 3.2 6.4 0.00 0.00 0.00 61 1013.0
20260905191003 26 54 4.8 9.7 0.00 0.00 0.00 60 1013.1
20260905190003 26 42 4.8 14.5 0.00 0.00 0.00 61 1013.1
20260905185003 26 22 4.8 14.5 0.00 0.00 0.00 61 1013.2
20260905184004 26 62 3.2 12.9 0.00 0.00 0.00 60 1013.4
20260905183004 26 46 3.2 6.4 0.00 0.00 0.00 64 1013.4
20260905182004 26 51 3.2 11.3 0.00 0.00 0.00 61 1013.5
20260905181003 25 42 3.2 11.3 0.00 0.00 0.00 62 1013.6
20260905180005 26 15 3.2 9.7 0.00 0.00 0.00 62 1013.6
20260905175004 25 52 3.2 6.4 0.00 0.00 0.00 62 1013.7
20260905174003 26 61 1.6 6.4 0.00 0.00 0.00 61 1013.6
20260905173004 26 347 3.2 12.9 0.00 0.00 0.00 62 1013.7
20260905172003 26 15 1.6 8.0 0.00 0.00 0.00 61 1013.7
20260905171003 26 59 3.2 6.4 0.00 0.00 0.00 63 1013.9
20260905170005 25 315 4.8 16.1 0.00 0.00 0.00 63 1014.1
20260905165004 26 347 4.8 16.1 0.00 0.00 0.00 61 1014.1
20260905164003 25 294 4.8 9.7 0.00 0.00 0.00 63 1014.1
20260905163003 25 61 3.2 8.0 0.00 0.00 0.00 65 1014.2
20260905162003 25 28 3.2 11.3 0.00 0.00 0.00 68 1014.3
20260905161004 25 348 1.6 6.4 0.00 0.00 0.00 67 1014.5
20260905160003 24 46 3.2 6.4 0.00 0.00 0.00 65 1014.5
20260905155004 24 306 4.8 14.5 0.00 0.00 0.00 68 1014.7
20260905154003 24 14 1.6 11.3 0.00 0.00 0.00 66 1014.7
20260905153004 24 5 3.2 9.7 0.00 0.00 0.00 66 1014.6
20260905152005 24 323 1.6 8.0 0.00 0.00 0.00 66 1014.6
20260905151003 25 257 3.2 12.9 0.00 0.00 0.00 66 1014.7
20260905150003 25 346 3.2 9.7 0.00 0.00 0.00 67 1014.7
20260905145002 24 313 3.2 8.0 0.00 0.00 0.00 69 1014.6
20260905144002 24 63 0.0 6.4 0.00 0.00 0.00 70 1014.5
20260905143003 23 27 3.2 6.4 0.00 0.00 0.00 70 1014.4
20260905142003 23 38 3.2 6.4 0.00 0.00 0.00 70 1014.2
20260905141003 23 73 1.6 3.2 0.00 0.00 0.00 72 1013.9
20260905140004 23 66 1.6 4.8 0.00 0.00 0.00 73 1013.9
20260905135003 23 332 1.6 6.4 0.00 0.00 0.00 71 1013.9
20260905134004 23 323 1.6 8.0 0.00 0.00 0.00 71 1014.2
20260905133005 23 279 1.6 8.0 0.00 0.00 0.00 74 1014.3
20260905132003 22 320 1.6 3.2 0.00 0.00 0.00 74 1014.2
20260905131003 23 319 1.6 9.7 0.00 0.00 0.00 74 1014.3
20260905130003 23 331 0.0 3.2 0.00 0.00 0.00 74 1014.2
20260905125002 22 321 1.6 9.7 0.00 0.00 0.00 75 1014.2
20260905124002 22 257 0.0 3.2 0.00 0.00 0.00 76 1014.0
20260905123003 22 309 1.6 9.7 0.00 0.00 0.00 76 1014.0
20260905122004 22 84 0.0 3.2 0.00 0.00 0.00 77 1013.9
20260905121003 22 98 1.6 3.2 0.00 0.00 0.00 77 1013.9
20260905120006 22 98 1.6 4.8 0.00 0.00 0.00 77 1013.9
20260905115004 22 101 0.0 4.8 0.00 0.00 0.00 78 1013.9
20260905114002 22 98 0.0 4.8 0.00 0.00 0.00 77 1013.9
20260905113002 21 94 0.0 0.0 0.00 0.00 0.00 78 1013.7
20260905112002 21 94 1.6 9.7 0.00 0.00 0.00 78 1013.7
20260905111002 21 107 1.6 3.2 0.00 0.00 0.00 78 1013.6
20260905110003 21 75 0.0 4.8 0.00 0.00 0.00 78 1013.6
20260905105002 21 78 0.0 0.0 0.00 0.00 0.00 78 1013.6
20260905104003 22 78 1.6 4.8 0.00 0.00 0.00 77 1013.4
20260905103003 22 73 1.6 4.8 0.00 0.00 0.00 77 1013.2
20260905102004 22 103 0.0 0.0 0.00 0.00 0.00 78 1013.2
20260905101004 22 103 0.0 3.2 0.00 0.00 0.00 78 1013.1
20260905100004 22 103 0.0 1.6 0.00 0.00 0.00 78 1013.0
20260905095003 22 105 0.0 4.8 0.00 0.00 0.00 79 1013.0
20260905094003 22 100 0.0 0.0 0.00 0.00 0.00 78 1013.1
20260905093004 22 63 1.6 3.2 0.00 0.00 0.00 78 1012.8
20260905092002 22 61 1.6 4.8 0.00 0.00 0.00 78 1012.7
20260905091001 22 13 3.2 6.4 0.00 0.00 0.00 78 1012.8
20260905090004 22 61 1.6 4.8 0.00 0.00 0.00 78 1012.7
20260905085002 22 57 3.2 6.4 0.00 0.00 0.00 78 1012.5
20260905084002 22 53 1.6 4.8 0.00 0.00 0.00 78 1012.7
20260905083001 23 37 0.0 0.0 0.00 0.00 0.00 77 1012.6
20260905082001 23 36 1.6 4.8 0.00 0.00 0.00 77 1012.7
20260905081001 23 53 1.6 4.8 0.00 0.00 0.00 77 1013.0
20260905080002 23 32 1.6 4.8 0.00 0.00 0.00 76 1012.9
20260905075002 23 34 1.6 3.2 0.00 0.00 0.00 76 1012.9
20260905074001 23 40 1.6 4.8 0.00 0.00 0.00 77 1013.0
20260905073002 23 43 0.0 4.8 0.00 0.00 0.00 79 1012.8
20260905072001 23 339 1.6 14.5 0.00 0.00 0.00 79 1012.9
20260905071003 23 38 0.0 4.8 0.00 0.00 0.00 81 1013.0
20260905070002 23 32 1.6 8.0 0.00 0.00 0.00 82 1013.0
20260905065001 23 320 1.6 4.8 0.00 0.00 0.00 83 1013.0
20260905064001 23 329 1.6 9.7 0.00 0.00 0.00 83 1013.2
20260905063002 23 313 0.0 3.2 0.00 0.00 0.00 83 1013.1
20260905062001 23 5 0.0 0.0 0.00 0.00 0.00 83 1013.0
20260905061001 23 9 0.0 0.0 0.00 0.00 0.00 83 1013.2
20260905060002 23 319 0.0 0.0 0.00 0.00 0.00 83 1013.2
20260905055001 23 320 0.0 4.8 0.00 0.00 0.00 82 1013.4
20260905054001 23 337 0.0 4.8 0.00 0.00 0.00 83 1013.5
20260905053001 23 288 0.0 3.2 0.00 0.00 0.00 84 1013.5
20260905052001 23 286 0.0 4.8 0.00 0.00 0.00 84 1013.5
20260905051002 23 269 0.0 0.0 0.00 0.00 0.00 84 1013.7
20260905050002 23 288 1.6 4.8 0.00 0.00 0.00 85 1013.9
20260905045001 23 298 3.2 6.4 0.00 0.00 0.00 85 1014.0
20260905044001 23 245 1.6 6.4 0.00 0.00 0.00 85 1013.9
20260905043001 23 304 0.0 0.0 0.00 0.00 0.00 85 1013.8
20260905042001 23 304 0.0 6.4 0.00 0.00 0.00 85 1013.8
20260905041004 23 271 0.0 0.0 0.00 0.00 0.00 85 1013.8
20260905040007 23 271 0.0 0.0 0.00 0.00 0.00 85 1013.8
20260905035004 24 271 0.0 0.0 0.00 0.00 0.00 84 1013.9
20260905034005 24 271 0.0 0.0 0.00 0.00 0.00 84 1013.8
20260905033004 24 271 0.0 0.0 0.00 0.00 0.00 83 1013.7
20260905032004 24 271 0.0 0.0 0.00 0.00 0.00 82 1013.6
20260905031004 24 271 0.0 0.0 0.00 0.00 0.00 82 1013.5
20260905030004 25 271 0.0 0.0 0.00 0.00 0.00 81 1013.6
20260905025004 25 271 0.0 0.0 0.00 0.00 0.00 82 1013.6
20260905024004 25 271 0.0 0.0 0.00 0.00 0.00 82 1013.5